Home > Weather > Canada > Yellowknife > Past weeks

Flag for Canada Weather past 2 weeks in Yellowknife, Northwest Territories, Canada

9 °F

Partly sunny.

Feels Like: -3 °F
Forecast: 10 / 19 °F
Wind: 7 mph from Northeast

Location: Yellowknife

Current Time: Dec 1, 2015 at 10:32:29 AM

Latest Report: Dec 1, 2015 at 10:00 AM

Visibility: 15 mi

Pressure: 29.91 "Hg

Humidity: 92%

Dew point: 7 °F

Location of YellowknifeLocation

Historic Weather in Yellowknife — Graph


Yellowknife temperature yesterday

Maximum temperature yesterday: 19 °F (at 12:00 AM)
Minimum temperature yesterday: 14 °F (at 8:00 AM)
Average temperature yesterday: 17 °F

Past Weeks' High & Low Weather Summary

High25 °F (Nov 26, 8:00 AM)100% (Nov 26, 4:50 AM)30.41 "Hg (Nov 26, 4:50 AM)
Low-13 °F (Nov 20, 9:00 AM)76% (Nov 20, 8:00 AM)29.45 "Hg (Nov 17, 2:00 PM)
Average9 °F88%29.92 "Hg
* Reported Nov 16 9:00 AM — Dec 1 9:00 AM, Yellowknife, Weather by CustomWeather, © 2015

Note: Actual official high and low records may vary slightly from our data, if they occured in-between our weather recording intervals... More about our weather records


Yellowknife weather history for previous 24 hours

Time TempWeatherWind HumidityBarometerVisibility
9:00 AM
Tue, Dec 1
10 °FLight snow. Partly cloudy.7 mph92%29.91 "Hg15 mi
8:00 AM12 °FLight snow. Passing clouds.6 mph92%29.92 "Hg15 mi
7:00 AM14 °FLight snow. Low clouds.6 mph85%29.91 "Hg15 mi
6:00 AM14 °FLight snow. Low clouds.7 mph92%29.88 "Hg15 mi
5:00 AM16 °FLight snow. Low clouds.8 mph86%29.87 "Hg15 mi
4:00 AM16 °FLight snow. Low clouds.10 mph93%29.86 "Hg15 mi
3:00 AM19 °FLight snow. Low clouds.13 mph93%29.83 "Hg15 mi
2:00 AM19 °FLow clouds.13 mph100%29.80 "Hg15 mi
1:00 AM19 °FMostly cloudy.10 mph93%29.78 "Hg15 mi
12:00 AM19 °FMostly cloudy.9 mph93%29.77 "Hg15 mi
11:00 PM
Mon, Nov 30
18 °FMostly cloudy.13 mph93%29.74 "Hg15 mi
10:00 PM18 °FLight snow. Ice fog.10 mph93%29.72 "Hg5 mi
9:45 PM18 °FLight snow. Ice fog.10 mph93%29.71 "Hg3 mi
9:00 PM18 °FLight snow. Ice fog.12 mph93%29.69 "Hg2 mi
8:00 PM18 °FLight snow. Ice fog.9 mph93%29.67 "Hg2 mi
7:00 PM19 °FLight snow. Ice fog.8 mph93%29.64 "Hg15 mi
6:00 PM16 °FLight snow. Ice fog.5 mph93%29.61 "Hg2 mi
5:00 PM18 °FLight snow. Ice fog.10 mph93%29.57 "Hg1 mi
4:00 PM14 °FLight snow. Ice fog.13 mph92%29.54 "Hg1 mi
3:00 PM14 °FPassing clouds.7 mph92%29.51 "Hg15 mi
2:00 PM16 °FPassing clouds.7 mph86%29.49 "Hg15 mi
1:00 PM18 °FScattered clouds.5 mph93%29.47 "Hg15 mi
12:00 PM19 °FPartly sunny.5 mph93%29.47 "Hg15 mi
11:00 AM16 °FPartly sunny.2 mph93%29.48 "Hg15 mi
10:00 AM18 °FPartly sunny.5 mph93%29.48 "Hg15 mi
Weather by CustomWeather, © 2015

See weather overviewHow to use our weather pages